When you browse on this site, cookies collect data to enhance your experience and personalize the content and advertising you see.
Visit our Privacy Policy to learn more. By continuing to use the site, you agree to this use of cookies and data.
  • In Austria
  • List of Countries
  • For 7 days
  • Water Temperature
  • Satellite Maps
  • Weather Map
  • News
  • Weather Widgets
  • user-avatar
    Login

    Hourly Weather Syracuse

    Today, 19 April, Friday

    Time Temperature Precipitation Wind Pressure Humidity
    00:00 +20°C° 0 mm 7 mps 740 mmHg 68%
    01:00 +20°C° 0 mm 8 mps 740 mmHg 66%
    02:00 +18°C° 0 mm 7 mps 740 mmHg 68%
    03:00 +19°C° 0 mm 6 mps 740 mmHg 70%
    04:00 +19°C° 0 mm 6 mps 740 mmHg 71%
    05:00 +19°C° 0 mm 6 mps 740 mmHg 74%
    06:00 +19°C° 0 mm 6 mps 740 mmHg 77%
    07:00 +19°C° 0 mm 6 mps 740 mmHg 80%
    08:00 +19°C° 0.2 mm 6 mps 740 mmHg 79%
    09:00 +20°C° 0.2 mm 7 mps 740 mmHg 78%
    10:00 +20°C° 0.2 mm 7 mps 740 mmHg 78%
    11:00 +20°C° 0.3 mm 6 mps 740 mmHg 77%
    12:00 +21°C° 0.3 mm 6 mps 740 mmHg 76%
    13:00 +21°C° 0.3 mm 5 mps 739 mmHg 75%
    14:00 +21°C° 0.8 mm 5 mps 739 mmHg 79%
    15:00 +20°C° 0.8 mm 5 mps 738 mmHg 83%
    16:00 +20°C° 0.8 mm 5 mps 738 mmHg 87%
    17:00 +20°C° 0.8 mm 5 mps 738 mmHg 88%
    18:00 +20°C° 0.8 mm 5 mps 738 mmHg 89%
    19:00 +20°C° 0.8 mm 4 mps 738 mmHg 90%
    20:00 +19°C° 1.1 mm 4 mps 738 mmHg 90%
    21:00 +19°C° 1.1 mm 4 mps 739 mmHg 91%
    22:00 +19°C° 1.1 mm 4 mps 739 mmHg 91%
    23:00 +18°C° 2.3 mm 3 mps 739 mmHg 93%

    Tomorrow, 20 April, Saturday

    Time Temperature Precipitation Wind Pressure Humidity
    00:00 +17°C° 2.3 mm 3 mps 739 mmHg 95%
    01:00 +16°C° 2.3 mm 2 mps 739 mmHg 97%
    02:00 +15°C° 0.6 mm 2 mps 739 mmHg 97%
    03:00 +14°C° 0.6 mm 1 mps 739 mmHg 96%
    04:00 +13°C° 0.6 mm 1 mps 739 mmHg 96%
    05:00 +14°C° 0.8 mm 1 mps 739 mmHg 96%
    06:00 +15°C° 0.8 mm 2 mps 739 mmHg 96%
    07:00 +14°C° 0.8 mm 3 mps 739 mmHg 95%
    08:00 +17°C° 0.4 mm 4 mps 739 mmHg 92%
    09:00 +19°C° 0.4 mm 5 mps 739 mmHg 88%
    10:00 +20°C° 0.4 mm 6 mps 738 mmHg 85%
    11:00 +21°C° 0.1 mm 7 mps 738 mmHg 77%
    12:00 +22°C° 0.1 mm 8 mps 738 mmHg 70%
    13:00 +23°C° 0.1 mm 9 mps 737 mmHg 62%
    14:00 +23°C° 0 mm 8 mps 738 mmHg 58%
    15:00 +22°C° 0 mm 8 mps 738 mmHg 54%
    16:00 +22°C° 0 mm 7 mps 738 mmHg 50%
    17:00 +20°C° 0 mm 6 mps 739 mmHg 54%
    18:00 +17°C° 0 mm 5 mps 740 mmHg 59%
    19:00 +15°C° 0 mm 5 mps 741 mmHg 63%
    20:00 +14°C° 0 mm 4 mps 742 mmHg 67%
    21:00 +13°C° 0 mm 4 mps 742 mmHg 70%
    22:00 +12°C° 0 mm 4 mps 743 mmHg 73%
    23:00 +11°C° 0 mm 3 mps 744 mmHg 77%

    Day after tomorrow, 21 April, Sunday

    Time Temperature Precipitation Wind Pressure Humidity
    00:00 +11°C° 0 mm 3 mps 744 mmHg 80%
    01:00 +10°C° 0 mm 3 mps 744 mmHg 83%
    02:00 +10°C° 0 mm 3 mps 744 mmHg 84%
    03:00 +9°C° 0 mm 3 mps 744 mmHg 86%
    04:00 +9°C° 0 mm 2 mps 744 mmHg 88%
    05:00 +10°C° 0 mm 3 mps 745 mmHg 84%
    06:00 +11°C° 0 mm 3 mps 745 mmHg 81%
    07:00 +12°C° 0 mm 3 mps 746 mmHg 78%
    08:00 +13°C° 0.1 mm 3 mps 746 mmHg 72%
    09:00 +16°C° 0.1 mm 3 mps 746 mmHg 66%
    10:00 +17°C° 0.1 mm 3 mps 746 mmHg 59%
    11:00 +17°C° 0.1 mm 3 mps 747 mmHg 59%
    12:00 +18°C° 0.1 mm 3 mps 747 mmHg 58%
    13:00 +18°C° 0.1 mm 3 mps 747 mmHg 58%
    14:00 +18°C° 0.1 mm 3 mps 747 mmHg 58%
    15:00 +18°C° 0.1 mm 2 mps 748 mmHg 59%
    16:00 +18°C° 0.1 mm 2 mps 748 mmHg 59%
    17:00 +17°C° 0 mm 2 mps 748 mmHg 65%
    18:00 +15°C° 0 mm 2 mps 749 mmHg 71%
    19:00 +14°C° 0 mm 1 mps 749 mmHg 76%
    20:00 +13°C° 0 mm 1 mps 750 mmHg 80%
    21:00 +12°C° 0 mm 1 mps 750 mmHg 83%
    22:00 +10°C° 0 mm 2 mps 751 mmHg 86%
    23:00 +11°C° 0 mm 1 mps 751 mmHg 87%

    22 April, Monday

    Time Temperature Precipitation Wind Pressure Humidity
    00:00 +10°C° 0 mm 1 mps 751 mmHg 88%
    01:00 +10°C° 0 mm 1 mps 751 mmHg 90%
    02:00 +9°C° 0 mm 1 mps 751 mmHg 90%
    03:00 +9°C° 0 mm 1 mps 751 mmHg 90%
    04:00 +9°C° 0 mm 1 mps 752 mmHg 91%
    05:00 +10°C° 0 mm 1 mps 752 mmHg 87%
    06:00 +11°C° 0 mm 1 mps 752 mmHg 84%
    07:00 +11°C° 0 mm 0 mps 753 mmHg 80%
    08:00 +13°C° 0 mm 0 mps 752 mmHg 73%
    09:00 +16°C° 0 mm 0 mps 752 mmHg 66%
    10:00 +18°C° 0 mm 0 mps 752 mmHg 59%
    11:00 +19°C° 0 mm 0 mps 752 mmHg 56%
    12:00 +20°C° 0 mm 0 mps 751 mmHg 52%
    13:00 +22°C° 0 mm 0 mps 751 mmHg 49%
    14:00 +23°C° 0 mm 1 mps 750 mmHg 51%
    15:00 +21°C° 0 mm 2 mps 750 mmHg 53%
    16:00 +21°C° 0 mm 2 mps 750 mmHg 55%
    17:00 +19°C° 0.2 mm 2 mps 750 mmHg 65%
    18:00 +17°C° 0.2 mm 2 mps 750 mmHg 74%
    19:00 +15°C° 0.2 mm 1 mps 750 mmHg 84%
    20:00 +15°C° 0 mm 1 mps 751 mmHg 84%
    21:00 +15°C° 0 mm 1 mps 751 mmHg 84%
    22:00 +15°C° 0 mm 1 mps 751 mmHg 83%
    23:00 +14°C° 0 mm 1 mps 751 mmHg 85%

    23 April, Tuesday

    Time Temperature Precipitation Wind Pressure Humidity
    00:00 +14°C° 0 mm 1 mps 751 mmHg 86%
    01:00 +13°C° 0 mm 1 mps 751 mmHg 87%
    02:00 +13°C° 0 mm 2 mps 751 mmHg 89%
    03:00 +13°C° 0 mm 2 mps 751 mmHg 91%
    04:00 +11°C° 0 mm 3 mps 751 mmHg 93%
    05:00 +11°C° 0.1 mm 3 mps 752 mmHg 93%
    06:00 +10°C° 0.1 mm 3 mps 752 mmHg 92%
    07:00 +9°C° 0.1 mm 3 mps 753 mmHg 91%
    08:00 +10°C° 0 mm 3 mps 753 mmHg 87%
    09:00 +11°C° 0 mm 4 mps 753 mmHg 82%
    10:00 +12°C° 0 mm 4 mps 754 mmHg 78%
    11:00 +13°C° 0 mm 4 mps 754 mmHg 73%
    12:00 +14°C° 0 mm 4 mps 754 mmHg 67%
    13:00 +15°C° 0 mm 5 mps 754 mmHg 62%
    14:00 +15°C° 0 mm 5 mps 753 mmHg 58%
    15:00 +15°C° 0 mm 5 mps 753 mmHg 55%
    16:00 +15°C° 0 mm 5 mps 753 mmHg 51%
    17:00 +13°C° 0 mm 4 mps 753 mmHg 54%
    18:00 +11°C° 0 mm 3 mps 754 mmHg 56%
    19:00 +9°C° 0 mm 3 mps 754 mmHg 59%
    20:00 +8°C° 0 mm 2 mps 754 mmHg 61%
    21:00 +7°C° 0 mm 2 mps 755 mmHg 63%
    22:00 +6°C° 0 mm 2 mps 755 mmHg 64%
    23:00 +6°C° 0 mm 2 mps 755 mmHg 64%

    24 April, Wednesday

    Time Temperature Precipitation Wind Pressure Humidity
    00:00 +5°C° 0 mm 2 mps 755 mmHg 63%
    01:00 +6°C° 0 mm 1 mps 755 mmHg 62%
    02:00 +5°C° 0 mm 1 mps 755 mmHg 63%
    03:00 +4°C° 0 mm 1 mps 755 mmHg 63%
    04:00 +4°C° 0 mm 1 mps 756 mmHg 63%
    05:00 +5°C° 0 mm 1 mps 756 mmHg 61%
    06:00 +6°C° 0 mm 1 mps 756 mmHg 58%
    07:00 +7°C° 0 mm 1 mps 756 mmHg 55%
    08:00 +9°C° 0 mm 1 mps 756 mmHg 51%
    09:00 +11°C° 0 mm 1 mps 756 mmHg 46%
    10:00 +14°C° 0 mm 1 mps 756 mmHg 42%
    11:00 +15°C° 0 mm 1 mps 755 mmHg 39%
    12:00 +16°C° 0 mm 1 mps 755 mmHg 37%
    13:00 +18°C° 0 mm 1 mps 755 mmHg 35%
    14:00 +18°C° 0 mm 1 mps 754 mmHg 35%
    15:00 +18°C° 0 mm 1 mps 754 mmHg 36%
    16:00 +18°C° 0 mm 1 mps 754 mmHg 36%
    17:00 +15°C° 0 mm 1 mps 754 mmHg 43%
    18:00 +13°C° 0 mm 1 mps 753 mmHg 49%
    19:00 +11°C° 0 mm 1 mps 753 mmHg 56%
    20:00 +10°C° 0 mm 1 mps 753 mmHg 57%
    21:00 +9°C° 0 mm 2 mps 753 mmHg 58%
    22:00 +8°C° 0 mm 2 mps 753 mmHg 59%
    23:00 +9°C° 0 mm 3 mps 753 mmHg 58%
    Show more